Location: Cantaing
(50.1487°N, 3.1675°E)
Time: 15:52:24
(UTC+00:00)

Cosmos 1992 Rocket - Pass Details

Date: 14 January 2026
Orbit: 754 x 761 km, 74.0° (Epoch: 18 February)

Event Time Altitude Azimuth Distance (km) Brightness Sun altitude
Exits shadow 05:18:10 50° 304° (NW) 959 4.1 -22.2°
Maximum altitude 05:19:16 64° 251° (WSW) 840 3.9 -22.0°
Drops below altitude 10° 05:24:23 10° 171° (S) 2,283 6.7 -21.2°
Sets 05:26:45 0° 168° (SSE) 3,205 7.5 -20.8°
